Location: New York
(40.7127°N, 74.0060°W)
Time: 17:06:28
(UTC-04:00)

VELOX 1 - Pass Details

Date: 27 April 2024
Orbit: 605 x 617 km, 98.3° (Epoch: 27 May)

Event Time Altitude Azimuth Distance (km) Brightness Sun altitude
Rises 20:39:13 0° 18° (NNE) 2,901 ? -9.6°
Reaches altitude 10° 20:41:27 10° 23° (NNE) 1,991 ? -9.9°
Maximum altitude 20:45:41 53° 100° (E) 766 ? -10.6°
Drops below altitude 10° 20:49:53 10° 178° (S) 1,972 ? -11.3°
Sets 20:52:06 0° 183° (S) 2,871 ? -11.7°
